Погода в Сабирабаде

Азербайджан     39°59′25″N   48°27′47″E
темп.,
°C
ветер,
м/с
пор.,
м/с
влажн.,
%
обл.,
%
осадки,
мм/ч
давл.,
гПа
погр.,
м
13 апреля, вт
вт1301:00+13ююв34810 0.0 101994
04:00+12ю358558 0.0 1019105
07:00+12ююз2487100 0.0 1020122
10:00+20в37380 0.0 1020954
13:00+24вюв78260 0.0 10171621
16:00+24вюв810273 0.0 10151349
19:00+19вюв611374 0.0 1015359
22:00+14юв38480 0.0 1016155
14 апреля, ср
ср1401:00+13ю335522 0.0 101549
04:00+11юз11610 0.1 101411
07:00+12з34670 0.0 101486
10:00+19сз664947 0.0 1015790
13:00+23зсз77380 0.0 10141465
16:00+24сз88260 0.0 10121583
19:00+20зсз474087 0.0 1012123
22:00+17ююз3349100 0.0 101433
15 апреля, чт
чт1501:00+13ююв486594 0.0 1015199
04:00+12юв22745 0.0 101614
07:00+12ю33720 0.0 101762
10:00+19зюз23410 0.0 1017724
13:00+24з22245 0.0 10151691
16:00+25ю222387 0.0 10132180
19:00+19ююв7105184 0.0 1014447
22:00+14вюв696699 0.0 1017330
16 апреля, пт
пт1601:00+13вюв4769100 0.0 1016199
04:00+14вюв3567100 0.0 1016148
07:00+14ююв2467100 0.0 1017152
10:00+18юв3349100 0.0 1018635
13:00+23юв33365 0.0 10161159
16:00+25ююв54320 0.0 10151616
19:00+19ююв69449 0.0 1015354
22:00+14вюв47603 0.0 1017145
17 апреля, сб
сб1701:00+13юв46645 0.0 101797
04:00+11юв11735 0.0 101610
07:00+13ю117198 0.0 101739
10:00+19сз234389 0.0 1017631
13:00+24з3433100 0.0 10151207
16:00+27ююз22307 0.0 10131436
19:00+23ююв5843100 0.0 1014167
22:00+17вюв61151100 0.1 1017362